TimeCDT,TemperatureF,Dew PointF,Humidity,Sea Level PressureIn,VisibilityMPH,Wind Direction,Wind SpeedMPH,Gust SpeedMPH,PrecipitationIn,Events,Conditions,WindDirDegrees,DateUTC
12:52 AM,32.0,19.9,61,30.17,-9999.0,West,9.2,-,N/A,,Unknown,270,2012-10-10 05:52:00
1:52 AM,30.9,19.9,64,30.17,-9999.0,NW,4.6,-,N/A,,Unknown,320,2012-10-10 06:52:00
2:52 AM,30.9,19.9,64,30.17,-9999.0,Calm,Calm,-,N/A,,Unknown,0,2012-10-10 07:52:00
3:52 AM,27.0,17.1,66,30.18,-9999.0,SW,4.6,-,N/A,,Unknown,220,2012-10-10 08:52:00
4:52 AM,25.0,17.1,72,30.17,-9999.0,Calm,Calm,-,N/A,,Unknown,0,2012-10-10 09:52:00
5:52 AM,26.1,19.9,78,30.17,-9999.0,SW,10.4,-,N/A,,Unknown,230,2012-10-10 10:52:00
6:52 AM,25.0,19.0,78,30.17,-9999.0,WSW,8.1,-,N/A,,Unknown,240,2012-10-10 11:52:00
7:52 AM,28.0,21.9,78,30.16,-9999.0,SSW,4.6,-,N/A,,Unknown,210,2012-10-10 12:52:00
8:52 AM,34.0,27.0,75,30.15,-9999.0,SSW,5.8,-,N/A,,Unknown,200,2012-10-10 13:52:00
9:52 AM,43.0,28.9,58,30.14,-9999.0,South,4.6,-,N/A,,Unknown,190,2012-10-10 14:52:00
10:52 AM,51.1,28.0,41,30.11,-9999.0,SW,9.2,-,N/A,,Unknown,220,2012-10-10 15:52:00
11:52 AM,55.9,28.0,34,30.09,-9999.0,SSW,12.7,-,N/A,,Unknown,200,2012-10-10 16:52:00
12:52 PM,60.1,27.0,28,30.05,-9999.0,South,10.4,-,N/A,,Unknown,180,2012-10-10 17:52:00
1:52 PM,64.0,28.0,26,30.00,-9999.0,SSW,13.8,21.9,N/A,,Unknown,210,2012-10-10 18:52:00
2:52 PM,66.9,27.0,22,29.96,-9999.0,SW,17.3,-,N/A,,Unknown,230,2012-10-10 19:52:00
3:52 PM,70.0,26.1,19,29.92,-9999.0,SW,16.1,-,N/A,,Unknown,220,2012-10-10 20:52:00
4:52 PM,70.0,26.1,19,29.88,-9999.0,SW,18.4,24.2,N/A,,Unknown,220,2012-10-10 21:52:00
5:52 PM,70.0,26.1,19,29.87,-9999.0,WSW,10.4,-,N/A,,Unknown,240,2012-10-10 22:52:00
6:52 PM,64.0,27.0,25,29.87,-9999.0,SW,5.8,-,N/A,,Unknown,230,2012-10-10 23:52:00
7:52 PM,57.9,26.1,30,29.87,-9999.0,South,4.6,-,N/A,,Unknown,190,2012-10-11 00:52:00
8:52 PM,55.9,28.0,34,29.87,-9999.0,SSE,3.5,-,N/A,,Unknown,160,2012-10-11 01:52:00
9:52 PM,51.1,28.0,41,29.86,-9999.0,SW,8.1,-,N/A,,Unknown,230,2012-10-11 02:52:00
10:52 PM,53.1,32.0,45,29.85,-9999.0,WSW,12.7,-,N/A,,Unknown,250,2012-10-11 03:52:00
11:52 PM,53.1,33.1,47,29.85,-9999.0,WSW,11.5,-,N/A,,Unknown,240,2012-10-11 04:52:00